Location: Cedar Brake
(32.2526°N, 97.8459°W)
Time: 07:45:27
(UTC+00:00)

Cosmos 44 - Pass Details

Date: 22 April 2026
Orbit: 568 x 782 km, 65.1° (Epoch: 15 May)

Event Time Altitude Azimuth Distance (km) Brightness Sun altitude
Rises 02:37:26 0° 217° (SW) 2,999 6.7 -18.9°
Reaches altitude 10° 02:39:43 10° 221° (SW) 2,123 5.9 -19.3°
Maximum altitude 02:44:29 57° 300° (WNW) 842 4.0 -20.2°
Drops below altitude 10° 02:49:36 10° 19° (NNE) 2,264 6.1 -21.1°
Sets 02:52:06 0° 24° (NNE) 3,217 6.8 -21.6°
